Regional Weather Roundup
Issued by NWS

Home | Current Version | Previous Version | Graphics & Text | Print | Product List | Glossary On
Versions: 1 2 3 4 5 6 7 8 9 10 11 12 13 14 15 16 17 18 19 20 21 22 23 24 25 26 27 28 29 30 31 32 33 34 35 36 37 38 39 40 41 42 43 44 45 46 47 48 49 50
000
ASUS43 KFSD 270002
RWRSD

WEATHER ROUNDUP FOR SOUTH DAKOTA
NATIONAL WEATHER SERVICE SIOUX FALLS SD
700 PM CDT SUN APR 26 2015

NOTE: "FAIR" INDICATES FEW OR NO CLOUDS BELOW 12,000 FEET WITH NO
SIGNIFICANT WEATHER AND/OR OBSTRUCTIONS TO VISIBILITY.


SDZ001>005-009-010-012>017-270100-
NORTHWEST AND NORTH CENTRAL SOUTH DAKOTA

CITY           SKY/WX    TMP DP  RH WIND       PRES   REMARKS
BUFFALO          N/A     48  47  96 NE13      30.01R
FAITH            N/A     59  40  49 CALM      30.04S
MOBRIDGE       PTSUNNY   65  34  31 SE9       30.03S
$$

SDZ012>016-024>037-041>051-057-063-072>074-270100-
SOUTHWEST AND SOUTH CENTRAL SOUTH DAKOTA

CITY           SKY/WX    TMP DP  RH WIND       PRES   REMARKS
RAPID CTY ARPT CLOUDY    50  44  80 SE3       30.05R
PIERRE         CLOUDY    63  34  33 E12       30.03S
CUSTER         CLOUDY    40  38  93 E8        30.05R FOG
ELLSWORTH AFB  CLOUDY    51  45  78 SE5       30.05R
PHILIP         CLOUDY    61  38  42 SE13      30.03R
PINE RIDGE     CLOUDY    52  40  63 SE15      30.03R
WINNER         FAIR      63  34  33 SE12      30.03R
$$

SDZ004>011-016>023-039-040-270100-
NORTHEAST SOUTH DAKOTA

CITY           SKY/WX    TMP DP  RH WIND       PRES   REMARKS
ABERDEEN       SUNNY     67  33  28 E12       30.07R
WATERTOWN      SUNNY     62  30  29 E7        30.08R
BROOKINGS      SUNNY     63  30  29 NE10      30.07S
SISSETON         N/A     64  26  23 E7        30.08S
$$

SDZ017-020-022-023-036>040-048>070-270100-
SOUTHEAST SOUTH DAKOTA

CITY           SKY/WX    TMP DP  RH WIND       PRES   REMARKS
SIOUX FALLS    MOSUNNY   64  33  31 N14       30.03S
HURON          SUNNY     66  31  27 E6        30.04S
MITCHELL       SUNNY     65  36  34 E7        30.05S
YANKTON        SUNNY     64  30  27 E7        30.01S
$$

ABBREVIATIONS USED IN REMARKS
   TC - TEMPERATURE IN CELSIUS
  WCI - WIND CHILL INDEX
   HX - HEAT INDEX
  VSB - VISIBILITY




USA.gov is the U.S. government's official web portal to all federal, state and local government web resources and services.